DLR-TUBSAT

Last updated on Sun Jun 21 2026 00:02:51 GMT+0000 (Coordinated Universal Time)

1 25757U 99029B 26170.98014943 .00000046 00000+0 23075-4 0 9999 2 25757 98.6694 166.5761 0013868 346.6123 13.4702 14.52427375433651
UTC large
Height (km)
Speed (km/s)
/
Latitude / Longitude
Inclination (degrees)
Orbital Period (minutes)
Azimuth
Elevation
Range (km)
Doppler Factor

Next 0 passes for location: London (51.5072 / 0.1276)

Sorry there are no passes over London.
DLR-TUBSAT